sat.trackr.live / text

‹ back to catalog

STARLINK-33539

NORAD 63376 · 2025-063P

PAYLOAD ACTIVE UNKNOWN

§ Identity

Operator
Country
US
Launch date
2025-03-26
Launch site
AFWTR
Launch vehicle
Mass (kg)
RCS (m²)

Purposes: comms

External: N2YO · Heavens-Above · Gunter

§ Orbital elements

Epoch: 2026-09-20T07:17:49.080192Z

Period
93.85 min
Inclination
53.1571°
Eccentricity
0.0001405
Mean motion
15.34398315 rev/d
Perigee alt
461.7 km
Apogee alt
463.7 km
Semi-major
6,840.8 km
B*
4.1713e-4
RAAN
236.4502°
Arg perigee
93.9427°
Mean anomaly
266.1737°
Rev number
8,439

§ Raw data

STARLINK-335391 63376U 25063P   26263.30404028  .00013742  00000+0  41713-3 0  99962 63376  53.1571 236.4502 0001405  93.9427 266.1737 15.34398315 84393

JSON: /api/v1/satellites/63376 · /tle

For live sub-satellite position, see the globe view (requires WebGL).

§ Visibility from observer

Set your observer location to see the next 7 days of passes ≥ 10°. The values pass through the URL so the page stays shareable.

No JS? Fill the form by hand. The geolocation button needs JavaScript.